[[{"header":{"parameterUnit":"m.s-1","parameterCategory":1,"la1":30.2991,"la2":30.254,"lo1":-89.0895,"lo2":-89.0444,"dy":0.0017,"dx":0.0017,"nx":28,"ny":28,"refTime":"2025-06-19T09:00:00:Z","depth":0,"parameterNumber":2,"parameterNumberName":"U-component_of_WINDS"},"data":[0,0,0,0,0,0,0,0,0,0,0,0,0,0,0,0,0,0,0,0,0,0,0,0,0,0,0,0,0,0,0,0,0,0,0,0,0,0,0,0,0,0,0,0,0,0,0,0,0,0,0,0,0,0,0,0,0,0,2.5142,2.5142,0,2.5231,2.5232,2.5233,2.5193,2.5191,2.5189,2.5187,2.528,2.5285,2.5289,0,0,0,0,0,0,0,0,0,0,0,0,0,2.4934,2.4938,2.5141,2.5143,2.5144,2.5231,2.5232,2.5234,2.5194,2.5191,2.5188,2.5186,2.5279,2.5284,2.529,0,0,0,0,0,0,0,0,0,0,0,0,0,2.5024,2.4939,2.5141,2.5134,2.5134,2.5231,2.5233,2.5234,2.5194,2.5191,2.5188,2.5184,2.5277,2.5284,2.529,2.54,0,0,2.5311,2.5314,0,0,0,0,0,0,0,0,2.5019,2.5032,2.5134,2.5135,2.5135,2.5198,2.5194,2.529,2.5195,2.5172,2.5187,2.5183,2.5256,2.5264,2.5288,2.5404,2.5408,2.5312,2.5316,2.5319,2.5321,0,0,0,0,0,0,0,2.5013,2.5028,2.5177,2.5136,2.5136,2.5126,2.5135,2.5212,2.5231,2.5173,2.5171,2.5182,2.5255,2.5282,2.529,2.5409,2.5312,2.5318,2.5322,2.5325,2.5616,2.5619,0,0,0,0,0,0,2.5007,2.5023,2.5174,2.518,2.5068,2.5133,2.5143,2.5181,2.523,2.5235,2.5185,2.518,2.5272,2.5282,2.5293,2.5422,2.5319,2.5325,2.5329,2.5612,2.5616,2.562,0,0,0,0,0,0,2.5002,2.5021,2.5171,2.5101,2.5119,2.514,2.5183,2.5185,2.5211,2.5239,2.5242,2.5208,2.527,2.5284,2.5373,2.5425,2.5329,2.5335,2.5608,2.5613,2.5618,2.5682,0,0,0,0,0,0,2.4997,2.5019,2.5062,2.5102,2.5123,2.5249,2.5186,2.5189,2.5223,2.5217,2.5262,2.5266,2.5268,2.5363,2.5379,2.5433,2.534,2.5603,2.561,2.5617,2.5675,2.5689,2.5701,0,0,0,0,0,2.4989,2.5077,2.5064,2.5082,2.5176,2.5252,2.5264,2.5264,2.5227,2.5269,2.5286,2.5264,2.5416,2.5372,2.5391,2.5447,2.56,2.5608,2.5616,2.567,2.5686,2.57,0,0,0,0,0,0,2.5043,2.5082,2.5068,2.5171,2.5208,2.5245,2.5298,2.5282,2.5331,2.5324,2.5323,2.5333,2.5424,2.5445,2.5394,2.5553,2.5502,2.5515,2.5537,2.5553,2.5565,2.5558,2.5346,0,0,0,0,0,2.5067,2.5126,2.5156,2.5244,2.5263,2.5278,2.5311,2.5308,2.5346,2.5362,2.5386,2.5425,2.5481,2.5518,2.5571,2.5678,2.5686,2.5725,2.5738,2.5748,2.5759,2.5814,2.5831,2.5647,2.5647,2.5647,0,0,2.5117,2.5145,2.5183,2.5256,2.5284,2.5344,2.5291,2.5358,2.5402,2.5372,2.5457,2.5476,2.5519,2.5616,2.566,2.5636,2.5811,2.5759,2.5766,2.5771,2.5824,2.5841,2.5857,2.5653,2.5652,2.5651,0,0,2.5238,2.5266,2.5341,2.537,2.5413,2.5422,2.544,2.5478,2.5489,2.5574,2.5552,2.5605,2.5702,2.5733,2.5761,2.589,2.5871,2.5908,2.5974,2.6028,2.6042,2.6055,2.6099,2.6115,2.5918,2.5919,2.5919,0,2.5295,2.5385,2.5382,2.5449,2.5481,2.5456,2.5531,2.5559,2.5618,2.564,2.5612,2.5731,2.5759,2.5861,2.5893,2.5917,2.5936,2.5903,2.604,2.6053,2.6065,2.6107,2.6124,2.5923,2.5922,2.5922,2.5921,0,2.5451,2.5513,2.5569,2.5624,2.5663,2.5734,2.5741,2.578,2.5773,2.5784,2.5869,2.59,2.5958,2.5983,2.5977,2.6084,2.6067,2.604,2.5988,2.6086,2.6126,2.6142,2.5928,2.5927,2.5926,2.5925,0,0,2.561,2.5662,2.5682,2.5706,2.575,2.5798,2.5867,2.5923,2.5955,2.5996,2.6053,2.6134,2.6108,2.614,2.6137,2.6185,2.6282,2.6151,2.6152,2.6173,2.64,2.642,2.6438,2.627,2.6273,2.6276,2.6396,0,2.5733,2.5854,2.5852,2.5964,2.602,2.5995,2.6055,2.6088,2.61,2.6149,2.6162,2.6219,2.6181,2.62,2.6245,2.6261,2.6328,2.6252,2.6322,2.6324,2.6311,2.646,2.6481,2.6593,2.6411,2.6414,2.6416,0,2.5894,2.5938,2.6055,2.6088,2.6112,2.6165,2.6215,2.6262,2.6299,2.6304,2.6338,2.6327,2.6396,2.6343,2.6437,2.6385,2.6413,2.6425,2.6429,2.6435,2.6376,2.6468,2.6629,2.6646,2.6441,2.6439,2.6437,0,2.5996,2.6085,2.6165,2.6187,2.6228,2.6266,2.6285,2.6318,2.6351,2.6394,2.6415,2.6466,2.6494,2.6533,2.6536,2.6497,2.663,2.6577,2.6635,2.6635,2.6664,2.6662,2.683,2.6684,2.6684,2.6683,2.6683,0,2.6133,2.6205,2.6211,2.6261,2.634,2.6337,2.6415,2.643,2.646,2.6511,2.6493,2.6542,2.6542,2.6592,2.6594,2.667,2.6684,2.6689,2.6688,2.669,2.6689,2.6708,2.67,2.6688,2.6687,2.6686,2.6685,0,2.6261,2.6268,2.6354,2.6385,2.6395,2.6451,2.6478,2.6524,2.6533,2.6598,2.6613,2.6628,2.6684,2.6691,2.6758,2.6759,2.685,2.6842,2.6838,2.6836,2.6892,2.6886,2.7078,2.7102,2.6941,2.6943,2.6944,0,2.6347,2.6402,2.6438,2.6471,2.6492,2.6545,2.6577,2.6576,2.661,2.6654,2.6695,2.675,2.6793,2.6885,2.6901,2.6951,2.6943,2.7007,2.6951,2.695,2.6942,2.6939,2.6943,2.7018,2.702,2.7021,2.7022,0,2.65,2.65,2.6547,2.6595,2.6634,2.6672,2.6708,2.6736,2.6738,2.6778,2.6835,2.6869,2.6935,2.6989,2.7038,2.7057,2.704,2.704,2.7055,2.7057,2.7051,2.7053,2.6866,2.7035,2.7034,2.7033,2.7032,2.7032,2.6608,2.6654,2.6686,2.6739,2.6765,2.6798,2.6843,2.6856,2.6904,2.6957,2.6953,2.7016,2.7049,2.7112,2.7134,2.7183,2.7162,2.7185,2.719,2.7196,2.7201,2.7044,2.7192,2.7192,2.7191,2.7191,2.7191,0,2.6758,2.6777,2.6825,2.6875,2.6916,2.6895,2.6933,2.6968,2.7023,2.7055,2.7097,2.7162,2.7213,2.7232,2.7282,2.7317,2.731,2.733,2.7327,2.7331,2.7218,2.7198,2.7335,2.7335,2.7335,2.7335,2.7335,2.7335,2.6841,2.6917,2.692,2.7009,2.7027,2.7087,2.711,2.714,2.7165,2.7237,2.728,2.7291,2.7317,2.7369,2.7414,2.7419,2.7437,2.746,2.7461,2.7354,2.734,2.7326,2.7308,2.7465,2.7465,2.757,2.7571,2.7572]},{"header":{"parameterUnit":"m.s-1","parameterCategory":1,"la1":30.2991,"la2":30.254,"lo1":-89.0895,"lo2":-89.0444,"dy":0.0017,"dx":0.0017,"nx":28,"ny":28,"refTime":"2025-06-19T09:00:00:Z","depth":0,"parameterNumber":3,"parameterNumberName":"V-component_of_WINDS"},"data":[0,0,0,0,0,0,0,0,0,0,0,0,0,0,0,0,0,0,0,0,0,0,0,0,0,0,0,0,0,0,0,0,0,0,0,0,0,0,0,0,0,0,0,0,0,0,0,0,0,0,0,0,0,0,0,0,0,0,4.4663,4.4663,0,4.4701,4.4702,4.4702,4.465,4.4648,4.4646,4.4644,4.4679,4.4682,4.4685,0,0,0,0,0,0,0,0,0,0,0,0,0,4.4538,4.454,4.4663,4.4663,4.4664,4.4701,4.4702,4.4702,4.465,4.4648,4.4646,4.4644,4.4678,4.4682,4.4685,0,0,0,0,0,0,0,0,0,0,0,0,0,4.4586,4.4541,4.4662,4.4642,4.4641,4.4701,4.4702,4.4702,4.4651,4.4648,4.4645,4.4642,4.4677,4.4681,4.4685,4.4766,0,0,4.4697,4.4699,0,0,0,0,0,0,0,0,4.4583,4.459,4.4645,4.4644,4.4642,4.4668,4.467,4.4723,4.4651,4.4647,4.4644,4.4641,4.4678,4.4681,4.4695,4.4767,4.4769,4.4698,4.47,4.4702,4.4703,0,0,0,0,0,0,0,4.458,4.4588,4.4678,4.4646,4.4644,4.4629,4.4633,4.468,4.4677,4.4647,4.4643,4.4649,4.4676,4.4691,4.4695,4.4769,4.4698,4.4701,4.4704,4.4705,4.4908,4.4911,0,0,0,0,0,0,4.458,4.4586,4.4676,4.4679,4.4605,4.4634,4.4638,4.4662,4.4677,4.4676,4.4651,4.4646,4.4685,4.469,4.4696,4.479,4.4702,4.4706,4.4708,4.4905,4.4909,4.4912,0,0,0,0,0,0,4.4577,4.4588,4.4675,4.4631,4.4641,4.4639,4.4667,4.4665,4.4679,4.468,4.4678,4.4667,4.4683,4.469,4.4749,4.4791,4.4708,4.4711,4.4902,4.4906,4.4911,4.498,0,0,0,0,0,0,4.4574,4.4588,4.462,4.4633,4.4644,4.4729,4.467,4.4667,4.4687,4.4681,4.4694,4.4694,4.4682,4.4743,4.4753,4.4795,4.4714,4.4898,4.4904,4.4909,4.4974,4.4986,4.4997,0,0,0,0,0,4.457,4.4637,4.4622,4.4633,4.4684,4.4732,4.4738,4.4724,4.4691,4.4722,4.4722,4.4693,4.4785,4.475,4.476,4.4804,4.4895,4.4902,4.4909,4.4969,4.4984,4.4996,0,0,0,0,0,0,4.4628,4.4638,4.4621,4.4696,4.4713,4.4723,4.4762,4.474,4.4767,4.476,4.474,4.4743,4.4806,4.481,4.4771,4.4881,4.4834,4.4843,4.4876,4.489,4.4902,4.4899,4.4718,0,0,0,0,0,4.465,4.4689,4.4695,4.476,4.477,4.4764,4.4784,4.4772,4.4789,4.4796,4.48,4.4816,4.4848,4.4869,4.4899,4.4974,4.4975,4.5009,4.5021,4.503,4.5038,4.5077,4.5091,4.4934,4.4934,4.4934,0,0,4.4694,4.4705,4.4731,4.4772,4.4784,4.4823,4.4771,4.4815,4.4843,4.4802,4.4857,4.4861,4.4877,4.4944,4.4974,4.495,4.5082,4.5039,4.5046,4.5049,4.5085,4.51,4.5113,4.4939,4.4938,4.4937,0,0,4.4796,4.4809,4.4863,4.4877,4.4896,4.4892,4.4905,4.4918,4.4919,4.4975,4.4944,4.4976,4.5033,4.5045,4.5059,4.5164,4.5138,4.5174,4.5234,4.5272,4.5284,4.5295,4.5331,4.5344,4.5182,4.5182,4.5182,0,4.4848,4.4908,4.4894,4.494,4.4958,4.4923,4.4977,4.499,4.5018,4.503,4.5004,4.5073,4.5081,4.515,4.5176,4.5188,4.5201,4.5172,4.5284,4.5294,4.5304,4.5338,4.5352,4.5186,4.5186,4.5185,4.5185,0,4.4971,4.5013,4.5054,4.5083,4.5106,4.5156,4.5147,4.5171,4.5156,4.5154,4.521,4.522,4.525,4.5265,4.5251,4.5332,4.5316,4.5287,4.5239,4.5324,4.5355,4.5368,4.5192,4.5191,4.519,4.5189,0,0,4.5111,4.5131,4.5146,4.5158,4.5177,4.5208,4.5255,4.5286,4.5306,4.5326,4.5364,4.5412,4.5385,4.54,4.5387,4.5421,4.5502,4.5387,4.5387,4.5407,4.5589,4.561,4.5626,4.5485,4.5487,4.5489,4.5587,0,4.5212,4.5295,4.5283,4.5362,4.5399,4.5367,4.5407,4.5422,4.5421,4.5451,4.5449,4.5483,4.5446,4.5455,4.5486,4.5485,4.5538,4.5478,4.5518,4.552,4.5515,4.5643,4.5666,4.5758,4.56,4.5602,4.5603,0,4.534,4.5366,4.545,4.5462,4.5476,4.5514,4.554,4.557,4.5585,4.5582,4.5599,4.5579,4.5624,4.5576,4.5637,4.5597,4.5612,4.5614,4.5617,4.562,4.5566,4.5648,4.5787,4.58,4.5623,4.5622,4.562,0,4.5433,4.5488,4.5545,4.5556,4.5571,4.5598,4.5605,4.5618,4.5637,4.5659,4.5671,4.5698,4.5713,4.5734,4.5721,4.5688,4.5784,4.5735,4.5781,4.5781,4.5802,4.5801,4.5945,4.5814,4.5814,4.5813,4.5813,0,4.5546,4.5598,4.5586,4.5621,4.5678,4.5662,4.5718,4.5721,4.5732,4.5766,4.5739,4.577,4.5753,4.5782,4.5773,4.5824,4.5831,4.5828,4.5825,4.583,4.583,4.5839,4.5832,4.5817,4.5816,4.5816,4.5815,0,4.5658,4.5653,4.5712,4.5722,4.5725,4.5767,4.5774,4.5805,4.5802,4.5845,4.5854,4.5849,4.5882,4.5872,4.5908,4.5901,4.5966,4.5955,4.5961,4.5958,4.6004,4.6,4.6158,4.6177,4.6035,4.6037,4.6038,0,4.5731,4.577,4.5784,4.5805,4.5815,4.5849,4.5868,4.5854,4.5874,4.5894,4.5923,4.5954,4.5979,4.6033,4.6032,4.6059,4.6047,4.6101,4.6051,4.6055,4.6047,4.6044,4.6047,4.6111,4.6112,4.6114,4.6115,0,4.5859,4.5854,4.5884,4.5912,4.5936,4.5958,4.5977,4.5995,4.5981,4.6006,4.604,4.6059,4.6096,4.6127,4.6151,4.6157,4.6133,4.6131,4.6142,4.6148,4.615,4.6148,4.5987,4.6127,4.6126,4.6125,4.6124,4.6124,4.5953,4.5986,4.6001,4.6034,4.6047,4.6064,4.6094,4.6095,4.6124,4.6154,4.6143,4.6182,4.6195,4.6225,4.6234,4.6263,4.6242,4.626,4.6264,4.6268,4.6274,4.6146,4.6268,4.6267,4.6267,4.6267,4.6266,0,4.6079,4.6086,4.6118,4.6145,4.6171,4.6148,4.6167,4.6189,4.6225,4.6239,4.6264,4.6302,4.6332,4.6333,4.636,4.6383,4.6373,4.6391,4.6388,4.639,4.6291,4.6278,4.6398,4.6398,4.6398,4.6398,4.6398,4.6398,4.6147,4.6202,4.6198,4.6258,4.6264,4.6304,4.6316,4.6332,4.6343,4.6388,4.6413,4.6414,4.6422,4.6449,4.6475,4.6474,4.6485,4.6507,4.6502,4.641,4.6397,4.6384,4.6371,4.6509,4.651,4.6597,4.6598,4.6599]}]]